Location: Cubitt Town
(51.4833°N, 0.0000°E)
Time: 23:35:54
(UTC+00:00)

Cosmos 2322 - Pass Details

Date: 15 May 2026
Orbit: 840 x 853 km, 71.0° (Epoch: 11 June)

Event Time Altitude Azimuth Distance (km) Brightness Sun altitude
Rises 23:32:31 0° 325° (NW) 3,427 7.9 -19.3°
Reaches altitude 10° 23:35:07 10° 318° (NW) 2,485 6.9 -19.3°
Maximum altitude 23:40:21 39° 252° (WSW) 1,259 4.5 -19.4°
Enters shadow 23:42:18 30° 211° (SSW) 1,489 4.5 -19.4°
